パンスターズ彗星

C/2016 N6 ( PanSTARRS )

English version
Home page
Updated on November 23, 2017

---------------------------------------------------------------------

・ プロフィール

発見日 2016年7月14日
発見光度 20.7等
発見者 Pan-STARRS 1 telescope (Haleakala)

・ 写真集

・ 軌道要素

Epoch 2018 July 21.0 TT = JDT 2458320.5
T 2018 July 18.21010 TT                                 MPCW
q   2.6690968            (2000.0)            P               Q
z  +0.0004640      Peri.  162.80519     -0.53334865     +0.08479042
 +/-0.0000006      Node   298.97611     +0.61778178     +0.71869996
e   0.9987615      Incl.  105.83222     +0.57782773     -0.69013111
From 1153 observations 2016 June 27-2017 Oct. 29, mean residual 0".4.

・ 星図

・ 光度変化

        m1 = 3.5 + 5 logΔ + 14.0 log r

---------------------------------------------------------------------

軌道要素はM.P.E.C. 2017-V13に掲載されたものです。
星図はステラナビゲータ Ver.10 (アストロアーツ) で作成したものです。
光度グラフはComet for Windowsで作成したものです。

---------------------------------------------------------------------

Copyright(C) Seiichi Yoshida (comet@aerith.net). All rights reserved.